This is the latest recevied weather packets stored in our database for station/object EA3ANS-1. If no packets are shown the sender has not sent any weather packets the latest 10 day(s).
| Time | Temp. | Humidity | Pressure | Rain* | Wind** | Luminosity | Snow |
|---|---|---|---|---|---|---|---|
| 1787896086 | 25.56° C | - | 1013.7 hPa | 0 mm | 2.68 m/s, 1° | - | - |
| 1787895483 | 25° C | - | 1013.3 hPa | 0 mm | 3.13 m/s, 359° | - | - |
| 1787894885 | 25.56° C | - | 1012.9 hPa | 0 mm | 0.45 m/s, 349° | - | - |
| 1787894287 | 25.56° C | - | 1012.8 hPa | 0 mm | 2.68 m/s, 343° | - | - |
| 1787893689 | 25° C | - | 1013.3 hPa | 0 mm | 1.34 m/s, 339° | - | - |
| 1787893092 | 25.56° C | - | 1013.3 hPa | 0 mm | 1.79 m/s, 323° | - | - |
| 1787892494 | 25.56° C | - | 1013.6 hPa | 0 mm | 0.89 m/s, 290° | - | - |
| 1787891897 | 25° C | - | 1013 hPa | 0 mm | 1.34 m/s, 302° | - | - |
| 1787891290 | 25.56° C | - | 1013.1 hPa | 0 mm | 1.79 m/s, 359° | - | - |
| 1787890691 | 25.56° C | - | 1013.4 hPa | 0 mm | 0.45 m/s, 302° | - | - |
| 1787890088 | 26.11° C | - | 1013.6 hPa | 0 mm | 2.24 m/s, 283° | - | - |
| 1787889491 | 26.11° C | - | 1013.4 hPa | 0 mm | 3.13 m/s, 304° | - | - |
| 1787888893 | 26.11° C | - | 1013.1 hPa | 0 mm | 0.45 m/s, 58° | - | - |
| 1787888295 | 26.11° C | - | 1013 hPa | 0 mm | 1.34 m/s, 281° | - | - |
| 1787887691 | 26.11° C | - | 1012.8 hPa | 0 mm | 1.79 m/s, 245° | - | - |
| 1787887086 | 26.11° C | - | 1012.5 hPa | 0 mm | 0 m/s | - | - |
| 1787886489 | 26.11° C | - | 1012.7 hPa | 0 mm | 0.89 m/s, 41° | - | - |
| 1787885891 | 26.11° C | - | 1012.6 hPa | 0 mm | 1.34 m/s, 332° | - | - |
| 1787885286 | 26.11° C | - | 1012.6 hPa | 0 mm | 1.34 m/s, 24° | - | - |
| 1787884688 | 26.11° C | - | 1012.5 hPa | 0 mm | 0.89 m/s, 321° | - | - |
| 1787884091 | 26.67° C | - | 1012.6 hPa | 0 mm | 1.79 m/s, 291° | - | - |
| 1787883493 | 26.11° C | - | 1012.8 hPa | 0 mm | 0.89 m/s, 290° | - | - |
| 1787882889 | 26.11° C | - | 1012.5 hPa | 0 mm | 0.89 m/s, 295° | - | - |
| 1787882282 | 26.67° C | - | 1012.6 hPa | 0 mm | 0.89 m/s, 13° | - | - |
| 1787881681 | 26.67° C | - | 1012.8 hPa | 0 mm | 0 m/s | - | - |
* Rain latest hour (hover to see other rain measurements)
** Current wind speed in m/s (hover to see current wind gust speed)